Location: Unspecified
(33.9393°N, 0.0000°E)
Time: 18:33:41
(UTC+00:00)

Altair - Visible Passes

Search period start: 04 April 2026 00:00
Search period end: 14 April 2026 00:00
Orbit: 1502 x 1682 km, 47.2° (Epoch: 29 March)

Date Brightness Start Highest point End Pass type
(mag) Time Alt. Az. Time Alt. Az. Time Alt. Az.
4 Apr 8.3 20:06:10 10° NW 20:15:00 40° NNE 20:20:18 23° ENE visible
4 Apr 7.8 22:11:18 10° NW 22:18:18 56° NW 22:18:18 56° NW visible
5 Apr 8.3 19:40:48 10° NW 19:49:37 39° NNE 19:56:22 16° ENE visible
5 Apr 7.5 21:46:04 10° NW 21:54:23 70° NNW 21:54:23 70° NNW visible
5 Apr 9.5 23:51:41 10° WNW 23:52:24 12° WNW 23:52:24 12° WNW visible
6 Apr 8.4 19:15:26 10° WNW 19:24:14 38° N 19:32:28 11° ENE visible
6 Apr 7.3 21:20:48 10° NW 21:30:14 74° NNE 21:30:29 73° NE visible
6 Apr 9.2 23:26:16 10° WNW 23:28:29 18° WNW 23:28:29 18° WNW visible
7 Apr 8.4 18:50:02 10° WNW 18:58:50 38° N 19:07:21 10° ENE visible
7 Apr 7.4 20:55:32 10° NW 21:04:58 69° NNE 21:06:35 60° E visible
7 Apr 8.9 23:00:52 10° WNW 23:04:36 25° W 23:04:36 25° W visible
8 Apr 7.5 20:30:15 10° NW 20:39:41 65° NNE 20:42:44 45° E visible
8 Apr 8.5 22:35:29 10° WNW 22:40:45 33° W 22:40:45 33° W visible
9 Apr 7.6 20:04:58 10° NW 20:14:25 61° NNE 20:18:54 33° E visible
9 Apr 8.1 22:10:08 10° WNW 22:16:55 42° W 22:16:55 42° W visible
10 Apr 7.7 19:39:42 10° NW 19:49:06 58° NNE 19:55:06 24° E visible
10 Apr 7.8 21:44:48 10° WNW 21:53:07 52° WSW 21:53:07 52° WSW visible
11 Apr 7.8 19:14:24 10° NW 19:23:47 55° NNE 19:31:21 16° E visible
11 Apr 7.6 21:19:28 10° WNW 21:28:36 58° SW 21:29:22 56° SSW visible
12 Apr 7.9 18:49:06 10° NW 18:58:28 52° NNE 19:07:28 10° E visible
12 Apr 7.6 20:54:09 10° WNW 21:03:26 63° SW 21:05:39 51° S visible
12 Apr 9.4 23:02:43 10° W 23:03:40 11° WSW 23:03:40 11° WSW visible
13 Apr 7.5 20:28:50 10° WNW 20:38:15 69° SW 20:41:58 40° SSE visible
13 Apr 9.2 22:36:38 10° W 22:40:00 15° WSW 22:40:00 15° WSW visible
